Regional Weather Roundup
Issued by NWS Sterling, VA

Home | Current Version | Previous Version | Text Only | Print | Product List | Glossary On
Versions: 1 2 3 4 5 6 7 8 9 10 11 12 13 14 15 16 17 18 19 20 21 22 23 24 25 26 27
000
ASUS41 KLWX 291611
RWRLWX

REGIONAL WEATHER ROUNDUP
NATIONAL WEATHER SERVICE BALTIMORE MD/WASHINGTON DC
1200 PM EDT WED MAR 29 2017

Note: "FAIR" indicates few or no clouds below 12,000 feet
with no significant weather and/or obstructions to visibility.
 TC=TEMPERATURE CELSIUS

 * =Non NWS site. Station does not report precipitation (e.g. rain,
    snow, etc.), thunder, or fog.

DCZ001-MDZ009-015-VAZ040>042-051-053>054-291700-
WASHINGTON METRO

CITY           SKY/WX    TMP DP  RH WIND       PRES   REMARKS
WASHINGTON NAT MOSUNNY   61  42  49 N10       30.14S
DULLES         MOSUNNY   58  41  53 N15       30.14F
ANDREWS AFB    SUNNY     59  38  45 N13G20    30.12S
FT BELVOIR     SUNNY     60  41  49 N6G17     30.13S
QUANTICO       MOSUNNY   62  46  55 NE12      30.13F
COLLEGE PARK*  SUNNY     58  38  47 N9        30.13F
LEESBURG*      MOSUNNY   59  45  58 N9        30.15F
MANASSAS*      CLOUDY   N/A N/A N/A N12       30.15S

$$

MDZ006>007-011-014-291700-
BALTIMORE METRO

CITY           SKY/WX    TMP DP  RH WIND       PRES   REMARKS
BWI AIRPORT    MOSUNNY   58  38  47 N8        30.12F
MD SCIENCE CTR   N/A     58  34  40 MISG      30.13F
MARTIN STATE   SUNNY     59  41  51 NW12      30.14F
ANNAPOLIS      SUNNY     56  38  50 NW12      30.12F
FORT MEADE*    SUNNY     59  36  41 N6        30.15F

$$

MDZ012-015-019>023-291700-
MARYLAND EASTERN SHORE

CITY           SKY/WX    TMP DP  RH WIND       PRES   REMARKS
OCEAN CITY     CLOUDY    53  41  63 N14       30.10S
SALISBURY      CLOUDY    54  43  66 N10       30.10S
BAY BRIDGE AP* SUNNY     54  37  54 N10       30.13F
CAMBRIDGE*     SUNNY     55  41  58 NW13      30.11S
EASTON*        MOSUNNY   57  39  51 N9G17     30.15F

$$

MDZ017>025-291700-
SOUTHERN MARYLAND

CITY           SKY/WX    TMP DP  RH WIND       PRES   REMARKS
PATUXENT RIVER MOSUNNY   55  43  63 N18       30.11S
ST INIGOES     SUNNY     57  41  55 N10G20    30.11S
LEONARDTOWN*   SUNNY     55  41  58 N6        30.13S

$$

MDZ003>005-291700-
NORTH CENTRAL MARYLAND

CITY           SKY/WX    TMP DP  RH WIND       PRES   REMARKS
FREDERICK*     MOSUNNY   59  45  58 N9        30.18R
HAGERSTOWN APT SUNNY     56  39  53 N12       30.16S
WESTMINSTER*   SUNNY     54  37  54 N10G18    30.14S

$$

MDZ501>502-291700-
WESTERN MARYLAND

CITY           SKY/WX    TMP DP  RH WIND       PRES   REMARKS
OAKLAND*       MOSUNNY   41  34  75 NW6       30.17R
CUMBERLAND*    SUNNY     57  37  47 N6        30.20F

$$

VAZ025>031-291700-
SHENANDOAH VALLEY

CITY           SKY/WX    TMP DP  RH WIND       PRES   REMARKS
WINCHESTER*    MOSUNNY   55  39  54 N6        30.15F
FRONT ROYAL*   NOT AVBL
LURAY*         PTSUNNY   59  45  58 NW3       30.14F
NEW MARKET*    NOT AVBL
STAUNTON*      MOSUNNY   58  44  58 N7        30.16S
WAYNESBORO*    NOT AVBL

$$

WVZ021-048>050-054>055-291700-
EASTERN WEST VIRGINIA PANHANDLE

CITY           SKY/WX    TMP DP  RH WIND       PRES   REMARKS
MARTINSBURG    SUNNY     57  38  48 N13       30.15F
PETERSBURG*    MOSUNNY   58  44  58 E6        30.17S

$$

VAZ036>039-050-291700-
CENTRAL FOOTHILLS

CITY           SKY/WX    TMP DP  RH WIND       PRES   REMARKS
CHARLOTTESVILL MOSUNNY   65  45  48 VRB5      30.11F
CULPEPER*      CLOUDY    61  46  57 N6        30.14S
ORANGE*        PTSUNNY   61  45  55 NE8       30.14S
GORDONSVILLE*  NOT AVBL
WARRENTON*     PTSUNNY   62  40  44 N9G17     30.13F

$$

VAZ055>057-291700-
NORTH AND CENTRAL PIEDMONT

CITY           SKY/WX    TMP DP  RH WIND       PRES   REMARKS
FREDERICKSBRG* CLOUDY    59  47  63 N5        30.12S
STAFFORD*      PTSUNNY   58  45  62 NW10      30.17S

$$

NCZ024-NYZ072-PAZ021-071-VAZ022-071-291700-
OTHER REGIONAL OBSERVATIONS

CITY           SKY/WX    TMP DP  RH WIND       PRES   REMARKS
NEW YORK CITY  MOSUNNY   52  36  54 NE13      30.10F
PHILADELPHIA   MOSUNNY   54  33  45 NW14G22   30.12S
PITTSBURGH     MOSUNNY   50  37  61 VRB5      30.23S
ROANOKE        MOSUNNY   67  46  47 N3        30.12F
RICHMOND       PTSUNNY   62  51  67 N10       30.10S
RALEIGH        PTSUNNY   66  52  60 NE10G18   30.10S

$$

ANZ530>537-291700-
MARINE OBSERVATIONS

STATION/POSITION TIME  TEMP    WIND        PRES
                       AIR SEA DIR/SP/G
                 (UTC) (F)     (DEG/KT/KT) (MB)
THOMAS PT LIGHT  1600   49 47   40/ 11/ 11   N/A
BALT KEY BRIDGE  1536   53     340/  9/ 11 1020.2F
COVE POINT       1536   49      40/ 20/ 22 1020.4F
LEWISETTA        1536   54 52   50/  7/ 10 1019.6R
SOLOMONS ISLAND  1536   53 49   10/ 11/ 15   N/A
PINEY POINT      1548           20/  9/ 13   N/A

$$





USA.gov is the U.S. government's official web portal to all federal, state and local government web resources and services.